Regional Weather Roundup
Issued by NWS

Home | Current Version | Previous Version | Text Only | Print | Product List | Glossary On
Versions: 1 2 3 4 5 6 7 8 9 10 11 12 13 14 15 16 17 18 19 20 21 22 23 24 25 26 27 28 29 30 31 32 33 34 35 36 37 38 39 40 41 42 43 44 45 46 47 48 49 50
000
ASUS43 KLSX 300507
RWRMO

WEATHER SUMMARY FOR MISSOURI
NATIONAL WEATHER SERVICE SPRINGFIELD MO
1200 AM CDT WED JUL 30 2014

NOTE: "FAIR" INDICATES FEW OR NO CLOUDS BELOW 12,000 FEET WITH NO
       SIGNIFICANT WEATHER AND/OR OBSTRUCTIONS TO VISIBILITY.
       CURRENT SKY AND/OR WEATHER CONDITIONS ARE NOT AVAILABLE FOR
       CHILLICOTHE AND FARMINGTON.

MOZ001>031-035>038-043-044-053-054-300600-
...NORTHERN AND WESTERN MISSOURI...

CITY           SKY/WX    TMP DP  RH WIND       PRES   REMARKS
KANSAS CTY INT PTCLDY    67  59  75 NE7       30.12R
KANSAS C DTWN  PTCLDY    72  58  61 NE5       30.10S
LEE`S SUMMIT   PTCLDY    71  58  63 CALM      30.11F
ST JOSEPH      PTCLDY    64  60  87 CALM      30.12S
CHILLICOTHE      N/A     64  59  83 CALM      30.12S
KIRKSVILLE     CLOUDY    60  58  92 CALM      30.12R

$$
MOZ066>068-077>081-088>096-101>105-300600-
...SOUTHWEST MISSOURI...

CITY           SKY/WX    TMP DP  RH WIND       PRES   REMARKS
SPRINGFIELD    CLOUDY    71  60  68 CALM      30.10S HAZE
JOPLIN         MOCLDY    67  62  84 CALM      30.11R

$$
MOZ032>034-039>042-045>050-055>058-069>072-300600-
...CENTRAL MISSOURI...

CITY           SKY/WX    TMP DP  RH WIND       PRES   REMARKS
COLUMBIA       CLEAR     65  57  75 SE3       30.11R
JEFFERSON CITY PTCLDY    64  57  78 CALM      30.10R
ROLLA          MOCLDY    68  55  63 E5        30.10S
SEDALIA        CLEAR     65  58  78 CALM      30.11S
WHITEMAN AFB   CLEAR     63  51  64 CALM      30.10S
OSAGE BEACH    MOCLDY    63  55  77 CALM      30.11R

$$
MOZ051-052-059>065-300600-
...EAST CENTRAL MISSOURI...

CITY           SKY/WX    TMP DP  RH WIND       PRES   REMARKS
ST LOUIS INTL  PTCLDY    67  56  67 CALM      30.10S
SPIRIT OF STL  PTCLDY    61  58  90 CALM      30.09S
ST CHARLES     CLEAR     60  57  89 CALM      30.09R

$$
MOZ072>076-082>087-097>100-106>115-300600-
...SOUTH CENTRAL AND SOUTHEAST MISSOURI...

CITY           SKY/WX    TMP DP  RH WIND       PRES   REMARKS
CAPE GIRARDEAU CLEAR     62  58  86 CALM      30.11R
FARMINGTON     MOCLDY    61  57  88 CALM      30.14S
POPLAR BLUFF   CLEAR     62  57  83 CALM      30.10R
WEST PLAINS    CLEAR     66  58  75 CALM      30.13R

$$


USA.gov is the U.S. government's official web portal to all federal, state and local government web resources and services.